Location: Diamond Heights Village
(37.7458°N, 122.4416°W)
Time: 13:16:51
(UTC+00:00)

Daily predictions for brighter satellites

Satellite Brightness Start Highest point End
(mag) Time Altitude Azimuth Time Altitude Azimuth Time Altitude Azimuth
DMSP B5D2-2 4.2 12:00:37 10° SSE 12:05:52 88° ENE 12:11:11 10° NNW
Cosmos 1844 Rocket 3.9 12:01:28 10° WSW 12:06:06 26° WNW 12:10:46 10° N
Cosmos-2242 3.7 12:02:05 10° N 12:06:21 57° E 12:10:33 10° SSE
USA 81 4.5 12:01:47 10° NNW 12:06:45 43° W 12:11:41 10° SSW
USA 234 3.9 12:00:48 10° ESE 12:07:14 64° NE 12:13:42 10° NW
ATLAS 5 CENTAUR R/B 1.6 12:05:18 10° SSW 12:08:25 48° ESE 12:11:42 10° NE
Cosmos 1602 Rocket 3.8 12:16:18 10° S 12:20:45 81° E 12:25:13 10° N
Cosmos 1153 Rocket 4.5 12:16:55 10° S 12:23:03 80° W 12:29:13 10° N
